Location: *
(46.4833°N, 7.6667°E)
Time: 21:36:03
(UTC+00:00)

H-2A R/B - Pass Details

Date: 27 February 2020
Orbit: 733 x 837 km, 98.2° (Epoch: 05 April)

Event Time Altitude Azimuth Distance (km) Brightness Sun altitude
Exits shadow 20:03:38 - 199° (SSW) 3,074 5.1 -30.0°
Reaches altitude 10° 20:05:33 10° 209° (SSW) 2,424 4.6 -30.3°
Maximum altitude 20:10:07 28° 267° (W) 1,532 4.0 -31.0°
Drops below altitude 10° 20:14:45 10° 325° (NW) 2,461 5.3 -31.7°
Sets 20:17:29 0° 337° (NNW) 3,400 6.0 -32.1°
